STARLINK-32330, 61850

Orbit data source: Space-Track

STARLINK-32330, 61850 is a payload satellite owned by SpaceX/Seattle (US) in LEO that was launched on Thu, 07 Nov 2024 UTC via an FALCON 9 launch vehicle from the Air Force Eastern Test Range (AFETR). Payloads include a variety of satellites, spacecraft, and rockets equipped with specific instruments for various scientific and technological missions. These include communications satellites like Starlink; space stations such as the ISS; scientific satellites like the Hubble; Earth observation satellites from companies like Planet Labs, Umbra, and HawkEye 360; GPS; miniature CubeSats for education and research; and military/defense satellites.

Loading next visibility...
STARLINK-32330 details
Identifier
61850, 2024-202F
Orbit
LEO
Last TLE update6 hours ago
Origin
Flag of USSpaceX/Seattle (US)
ManufacturerSpaceX/Seattle
MissionOperational spacecraft
Bus & MotorSTARLINK V2M, Unknown motor
Mass730 kg wet, ~700 kg dry
Launch date (UTC)
2024-11-07 (2 months ago)
Launch vehicle
FALCON 9
Launch site
Air Force Eastern Test Range (AFETR)
Object type
Payload
Rocket body
Debris
Shape & HBRUnknown
Radar Cross SectionLarge (>1 m²)

Expand to show TLE details & history

TLE from 6 hours ago
0 STARLINK-32330
1 61850U 24202F   24361.72474989  .00002479  00000-0  66499-4 0  9996
2 61850  42.9991 200.2949 0000980 237.1306 122.9456 15.40739283  8820
Epoch: 2024-12-26T17:23Z
Definitive object data (Epoch: 2024-12-26T17:23:38.39Z)
Latitude-0.00004°
Longitude-156.31513°
Altitude444.064 km
Speed7.647 km/s
True Right ascension13h 21m 10s
True Declination0° 00' 00"
Sunlit
Object was in daylight at TLE epoch
Visualization TLE readout
Latitude-38.68161°
Longitude80.93949°
Altitude454.753 km
Speed7.64 km/s
Apparent Right ascension07h 42m 08s
Apparent Declination-46° 41' 44"
Sunlit
Object is in full shadow
Visualization observer readout
Local Sidereal Time22:30:42
Azimuth116.736° SE
Elevation-58.983°
Doppler factor1
Orbital elements
Apogee altitude446.551 km
Perigee altitude445.214 km
Semi-major axis6,824.02 km
Eccentricity0.000098
Inclination42.9991°
RAAN200.2949°
Arg. of periapsis237.1306°
True anomaly122.95502°
Mean anomaly122.9456°
Eccentric anomaly122.95031°
Mean motion3.8502 °/min
BSTAR0.000066499
Orbital period93.5 mins
Loading maneuver chart data...
Loading historical data...
Loading historical data...
Loading historical data...
Loading historical data...
Loading historical data...
Loading historical data...
Loading historical data...

STARLINK-32330 Visibility forecast

Observer location: undefined°, undefined

Span
Click to sort rows by Start time (UTC) header in descending order
Start Az.
Max El. time (UTC)
Max El. Az.
Max El.
End time (UTC)
End Az.
5 mins2024-12-27 16:57:26.497Z223.856° SW2024-12-27 16:59:26.497Z181.066° SSW35.095°2024-12-27 17:02:26.497Z83.119° E
4 mins2024-12-27 18:36:26.497Z283.326° WNW2024-12-27 18:38:26.497Z27.523° NE37.841°2024-12-27 18:40:26.497Z66.598° ENE
5 mins2024-12-27 20:14:26.497Z298.412° NW2024-12-27 20:16:26.497Z21.241° NNE39.32°2024-12-27 20:19:26.497Z87.021° E
5 mins2024-12-27 21:52:26.497Z273.336° WNW2024-12-27 21:54:26.497Z200.384° SSW38.155°2024-12-27 21:57:26.497Z129.924° SE
|